Tracking 22441 objects as of 1-Mar-2021
HD Live streaming from Space Station
objects crossing your sky now

TDRS 10

Track TDRS 10 now!
TDRS 10 is classified as:


NORAD ID: 27566
Int'l Code: 2002-055A
Perigee: 35,747.1 km
Apogee: 35,843.3 km
Inclination: 7.4 °
Period: 1,436.2 minutes
Semi major axis: 42166 km
RCS: 5.0118 m2 (large)
Launch date: December 5, 2002
Source: United States (US)
Launch site: AIR FORCE EASTERN TEST RANGE (AFETR)

Tracking and communications with space shuttle, other missions.
aabbcc
Your satellite tracking list
Your tracking list is empty




NASA's NSSDC Master Catalog

Two Line Element Set (TLE):
1 27566U 02055A   21059.77892294  .00000087  00000-0  00000+0 0  9997
2 27566   7.3541  52.4183 0011402 294.6544 281.0886  1.00266495 66821
Source of the keplerian elements: AFSPC